Flag for Austria Weather past 2 weeks in Bruck an der Mur, Styria, Austria

Now
23 °F

Partly cloudy.


Feels Like: 18 °F
Forecast: 28 / 38 °F
Wind: 3 mph from Southwest

Location: Zeltweg

Current Time: Dec 25, 2014 at 8:16:50 AM

Latest Report: Dec 25, 2014 at 6:50 AM


Visibility: 6 mi

Pressure: 30.12 "Hg

Humidity: 93%

Dew point: 21 °F

Location of Bruck an der MurLocation

Historic Weather in Bruck an der Mur — Graph

°F

Bruck an der Mur temperature yesterday

Maximum temperature yesterday: 41 °F (at 1:50 PM)
Minimum temperature yesterday: 19 °F (at 6:50 AM)
Average temperature yesterday: 28 °F

Past Weeks' High & Low Weather Summary

 TemperatureHumidityPressure
High55 °F (Dec 19, 2:50 PM)100% (Dec 10, 7:20 AM)30.39 "Hg (Dec 10, 7:20 AM)
Low16 °F (Dec 10, 7:20 AM)38% (Dec 20, 12:50 PM)29.86 "Hg (Dec 16, 2:50 PM)
Average33 °F85%30.07 "Hg
* Reported Dec 10 6:50 AM — Dec 25 6:50 AM, Bruck an der Mur, Weather by CustomWeather, © 2014

Note: Actual official high and low records may vary slightly from our data, if they occured in-between our weather recording intervals... More about our weather records

Advertising

Bruck an der Mur weather history for previous 24 hours

 ConditionsComfort  
Time TempWeatherWind HumidityBarometerVisibility
6:50 AM
Dec 25
23 °FPartly cloudy.3 mph93%30.12 "Hg6 mi
5:50 AM21 °FPassing clouds.3 mph93%30.12 "Hg6 mi
9:50 PM
Dec 24
25 °FPassing clouds.1 mph93%30.18 "Hg6 mi
8:50 PM27 °FPassing clouds.1 mph86%30.15 "Hg6 mi
7:50 PM27 °FPassing clouds.1 mph93%30.15 "Hg6 mi
6:50 PM27 °FPassing clouds.3 mph86%30.12 "Hg6 mi
5:50 PM27 °FPassing clouds.2 mph86%30.12 "Hg6 mi
4:50 PM30 °FPassing clouds.1 mph86%30.12 "Hg19 mi
3:50 PM36 °FPartly sunny.1 mph70%30.09 "Hg31 mi
2:50 PM41 °FPartly sunny.1 mph61%30.09 "Hg31 mi
1:50 PM41 °FPartly sunny.1 mph57%30.09 "Hg31 mi
12:50 PM37 °FPartly sunny.1 mph65%30.12 "Hg31 mi
11:50 AM34 °FPartly sunny.1 mph75%30.15 "Hg31 mi
10:50 AM30 °FPartly sunny.1 mph80%30.18 "Hg31 mi
9:50 AM27 °FPartly sunny.1 mph93%30.18 "Hg31 mi
8:50 AM21 °FPartly sunny.1 mph86%30.18 "Hg25 mi
Weather by CustomWeather, © 2014

See weather overviewHow to use our weather pages